Weather in Dalniy

Russia / Chukotka Autonomous Okrug     67°34′52″N   160°45′26″E
temp.,
°C
wind,
m/s
gust,
m/s
humid.,
%
clouds,
%
prec.,
mm/h
press.,
hPa
HPBL,
m
17 august, wed
wed1700:00+6ese4879100 0.0 1008243
03:00+5ese3575100 0.0 1007169
06:00+5ese3468100 0.0 1006184
09:00+8se3659100 0.0 1006397
12:00+12se5753100 0.0 1005838
15:00+12se895599 0.0 1004994
18:00+13se7854100 0.0 1004944
21:00+9se2371100 0.0 100573
18 august, thu
thu1800:00+7sse2386100 0.4 100598
03:00+6se2289100 0.0 100513
06:00+5se228279 0.0 100521
09:00+8se3561100 0.0 1005434
12:00+11sse455893 0.0 1005728
15:00+13sse465441 0.0 10041080
18:00+12ssw455880 0.0 1005802
21:00+9ssw2377100 0.1 100675
19 august, fri
fri1900:00+9s227395 0.1 100740
03:00+8sse227675 0.0 100710
06:00+8s227586 0.0 100826
09:00+12sse346053 0.0 1008459
12:00+14sse554615 0.0 10081092
15:00+17sse563424 0.0 10071407
18:00+16s55335 0.0 10071415
21:00+12sse22470 0.0 100811
20 august, sat
sat2000:00+9sse22510 0.0 100910
03:00+8s22570 0.0 100913
06:00+7sse22630 0.0 100913
09:00+12se37450 0.0 1009744
12:00+15se68390 0.0 10081246
15:00+17se67341 0.0 10081636
18:00+17se563945 0.0 10081901
21:00+12ssw225948 0.0 101041
21 august, sun
sun2100:00+8s227458 0.0 101113
03:00+8s2272100 0.0 101217
06:00+8sse227490 0.0 101318
09:00+11sse236284 0.0 1013371
12:00+13se235860 0.0 1013574
15:00+16se335256 0.0 10121033
18:00+16ese44514 0.0 1012959
21:00+11ese11684 0.0 101310